This is the latest recevied weather packets stored in our database for station/object N3AVN. If no packets are shown the sender has not sent any weather packets the latest 10 day(s).
| Time | Temp. | Humidity | Pressure | Rain* | Wind** | Luminosity | Snow |
|---|---|---|---|---|---|---|---|
| 1778007139 | 26.67° C | 46% | 1005.6 hPa | 0 mm | - | 575 W/m² | - |
| 1778006834 | 26.67° C | 45% | 1005.6 hPa | 0 mm | - | 598 W/m² | - |
| 1778006532 | 26.11° C | 46% | 1005.6 hPa | 0 mm | - | 640 W/m² | - |
| 1778006229 | 27.22° C | 44% | 1005.9 hPa | 0 mm | - | 588 W/m² | - |
| 1778005927 | 26.67° C | 45% | 1005.7 hPa | 0 mm | - | 674 W/m² | - |
| 1778005622 | 26.67° C | 45% | 1005.8 hPa | 0 mm | - | 623 W/m² | - |
| 1778005320 | 26.67° C | 44% | 1005.8 hPa | 0 mm | - | 659 W/m² | - |
| 1778005016 | 27.78° C | 44% | 1005.7 hPa | 0 mm | - | 639 W/m² | - |
| 1778004713 | 26.67° C | 45% | 1005.7 hPa | 0 mm | - | 676 W/m² | - |
| 1778004409 | 27.22° C | 45% | 1006 hPa | 0 mm | - | 705 W/m² | - |
| 1778004107 | 26.67° C | 46% | 1005.8 hPa | 0 mm | - | 637 W/m² | - |
| 1778003803 | 26.67° C | 46% | 1005.9 hPa | 0 mm | - | 438 W/m² | - |
| 1778003499 | 27.78° C | 45% | 1005.9 hPa | 0 mm | - | 624 W/m² | - |
| 1778003196 | 26.67° C | 45% | 1006.1 hPa | 0 mm | - | 527 W/m² | - |
| 1778002893 | 26.67° C | 45% | 1006.3 hPa | 0 mm | - | 620 W/m² | - |
| 1778002589 | 26.67° C | 46% | 1006.1 hPa | 0 mm | - | 675 W/m² | - |
| 1778002286 | 26.67° C | 46% | 1006.3 hPa | 0 mm | - | 670 W/m² | - |
| 1778001983 | 26.67° C | 46% | 1006.2 hPa | 0 mm | - | 705 W/m² | - |
| 1778001681 | 26.67° C | 48% | 1006.4 hPa | 0 mm | - | 714 W/m² | - |
| 1778001375 | 26.67° C | 46% | 1006.5 hPa | 0 mm | - | 708 W/m² | - |
| 1778001073 | 26.67° C | 46% | 1006.4 hPa | 0 mm | - | 640 W/m² | - |
| 1778000770 | 26.11° C | 46% | 1006.6 hPa | 0 mm | - | 645 W/m² | - |
| 1778000466 | 26.11° C | 48% | 1006.5 hPa | 0 mm | - | 716 W/m² | - |
| 1778000161 | 25.56° C | 49% | 1006.6 hPa | 0 mm | - | 694 W/m² | - |
| 1777999857 | 25.56° C | 49% | 1006.7 hPa | 0 mm | - | 678 W/m² | - |
* Rain latest hour (hover to see other rain measurements)
** Current wind speed in m/s (hover to see current wind gust speed)